Current weather by "City, St" or "zip code"  
 
Advertise Here

Current Conditions: Tulsa, Tulsa International Airport, OK

Overcast


33.0 F

Last Updated on Jan 27 2021, 12:53 pm CST
Humidity: 70%
Wind Speed: N 8.1 mph
Barometer 30.42 in
Dewpoint: 24.1 F
Visibility: 10.00 mi
Precip: --
Heat Index: NA
Wind Chill: 26 F
Current conditions at:

Tulsa, Tulsa International Airport, OK (KTUL)

Lat: 36.1975 Lon: 95.88639

Local Radar Image active severe weather and emergency alerts image image weather storm and storm spotter reports image weather observation monitoring service image
Local
Radar
Active
Alerts
Storm Reports Obs
Monitoring

Sign-up For Email & Text Message Weather Alert Notification Services


Advertise Here

Observation History for Tulsa, Tulsa International Airport, OK


Time Wind
(mph)
Vis
(mi)
Weather Precip (in) Temperature (F) Relative
Humidity
Wind
Chill
(F)
Heat
Index
(F)
Pressure
Air Dwpt altimeter
(in)
sea level
(mb)
Rmks
12:53 pm CST N 8.1 10.00 Overcast -- 33.0 24.1 70% 26 NA 30.42 1030.6
11:53 am CST NW 9.2 10.00 Overcast -- 33.0 25.0 72% 25 NA 30.41 1030.4
10:53 am CST NW 12.7 10.00 Overcast -- 32.0 25.0 75% 22 NA 30.40 1029.9
9:53 am CST NW 10.4 10.00 Overcast -- 32.0 25.0 75% 24 NA 30.36 1028.6
8:53 am CST N 15.0 10.00 Overcast -- 31.0 25.0 79% 20 NA 30.32 1027.3
7:53 am CST N 12.7 10.00 Overcast -- 30.0 26.1 85% 20 NA 30.28 1025.9
6:53 am CST N 10.4 10.00 Overcast -- 30.0 27.0 88% 21 NA 30.24 1024.4
5:53 am CST NW 10.4 10.00 Overcast -- 31.0 28.0 89% 22 NA 30.21 1023.7
4:53 am CST NW 10.4 5.00 Fog/Mist Trace 30.0 28.0 92% 21 NA 30.20 1023.0
3:53 am CST N 12.7 9.00 Overcast -- 31.0 27.0 85% 21 NA 30.17 1022.1
2:53 am CST N 9.2 10.00 Overcast -- 32.0 26.1 79% 24 NA 30.17 1022.0
1:53 am CST N 12.7 10.00 Overcast -- 32.0 27.0 82% 22 NA 30.15 1021.3
12:53 am CST N 6.9 10.00 Overcast -- 32.0 27.0 82% 26 NA 30.14 1021.0
11:53 pm CST NW 10.4 10.00 Overcast -- 33.0 27.0 78% 25 NA 30.15 1021.2
10:53 pm CST N 9.2 10.00 Overcast -- 33.0 27.0 78% 25 NA 30.12 1020.3
9:53 pm CST NW 9.2 10.00 Overcast -- 33.0 27.0 78% 25 NA 30.12 1020.2
8:53 pm CST NE 4.6 10.00 Overcast -- 34.0 27.0 76% 30 NA 30.08 1018.9
7:53 pm CST N 9.2 10.00 Overcast -- 34.0 27.0 76% 27 NA 30.08 1019.2
6:53 pm CST NE 6.9 10.00 Overcast -- 34.0 26.1 73% 28 NA 30.06 1018.2
5:53 pm CST N 9.2 10.00 Overcast -- 34.0 27.0 76% 27 NA 30.02 1017.0
4:53 pm CST N 11.5 G 17.3 10.00 Overcast -- 35.0 28.0 76% 27 NA 30.02 1016.9
3:53 pm CST N 13.8 G 20.7 10.00 Overcast -- 35.0 28.0 76% 26 NA 30.01 1016.7
2:53 pm CST N 10.4 10.00 Overcast -- 36.0 28.9 76% 28 NA 30.02 1017.1
1:53 pm CST N 6.9 10.00 Overcast -- 36.0 28.9 76% 30 NA 30.03 1017.3

Regional Weather Observation


Bartlesville, Bartlesville Municipal Airport, OK (KBVO)

Overcast
32.0 F

Tulsa - Jones Jr. Airport, OK (KRVS)

Overcast
34.0 F

Tulsa, Tulsa International Airport, OK (KTUL)

Overcast
33.0 F

Claremore, Claremore Regional Airport, OK (KGCM)

Overcast
32.0 F

Mid-America Industrial Airport, OK (KH71)

Overcast
34.0 F

Cushing, Cushing Municipal Airport, OK (KCUH)

Overcast
33.0 F